Regional Weather Roundup
Issued by NWS

Home | Current Version | Previous Version | Text Only | Print | Product List | Glossary On
Versions: 1 2 3 4 5 6 7 8 9 10 11 12 13 14 15 16 17 18 19 20 21 22 23 24 25 26 27 28 29 30 31 32 33 34 35 36 37 38 39 40 41 42 43 44 45 46 47 48 49 50
000
ASPQ40 PGUM 020210
RWRPQ
WEATHER ROUNDUP FOR THE MARIANAS AND MICRONESIA
NATIONAL WEATHER SERVICE TIYAN GU
1200 PM CHST WED SEP 02 2015

GUZ001>004-020300-
MARIANA ISLANDS-

CITY           SKY/WX    TMP DP  RH WIND       PRES   REMARKS
GUAM AIRPORT   NOT AVBL
ANDERSEN AFB   MOSUNNY   84  77  79 E9        29.91F HX  94
ROTA AIRPORT   PTSUNNY   84  79  84 NE12      29.91F HX  96
TINIAN AP      MOSUNNY   86  75  70 E8        29.88S HX  95
SAIPAN AP      MOSUNNY   86  77  74 E5        29.90S HX  97

$$

PMZ161-020300-
REPUBLIC OF PALAU-

CITY           SKY/WX    TMP DP  RH WIND       PRES   REMARKS
KOROR AP       PTSUNNY   86  77  74 W9        29.87S HX  97
KOROR WSO      MOSUNNY   86  75  70 W8        29.91S HX  95

$$

PMZ171>174-020300-
FEDERATED STATES OF MICRONESIA-

CITY           SKY/WX    TMP DP  RH WIND       PRES   REMARKS
YAP AIRPORT    PTSUNNY   86  77  74 VRB6      29.89S HX  97
CHUUK AP       CLOUDY    84  79  84 W8        29.86F HX  96
POHNPEI AP     LGT RAIN  75  75 100 SW12      29.88S
POHNPEI WSO    LGT RAIN  77  73  88 S9        29.90F
KOSRAE AP      NOT AVBL

$$

PMZ181-020300-
REPUBLIC OF THE MARSHALL ISLANDS-

CITY           SKY/WX    TMP DP  RH WIND       PRES   REMARKS
KWAJALEIN AP   MOSUNNY   86  75  70 S8        29.85F HX  95
MAJURO AP      PTSUNNY   88  75  66 S12       29.84  HX  97
MAJURO WSO     MOSUNNY   88  79  74 S12       29.85F HX 102

$$



USA.gov is the U.S. government's official web portal to all federal, state and local government web resources and services.